Weather History for Marion, IN

Change the Weather History Date:

Sunday, January 12, 2014

  Actual Average (KMIE) Record (KMIE)
Temperature  
Mean Temperature 34 °F 26 °F  
Max Temperature 78 °F 34 °F 63 °F (2013)
Min Temperature 29 °F 19 °F -7 °F (1974)
Degree Days  
Heating Degree Days 31 39  
Month to date heating degree days 459  
Since 1 July heating degree days 2657  
Cooling Degree Days 0 0  
Month to date cooling degree days 0  
Year to date cooling degree days 0  
Moisture  
Dew Point 29 °F    
Average Humidity 85    
Maximum Humidity 94    
Minimum Humidity 67    
Precipitation  
Precipitation 0.00 in 0.07 in 1.15 in (2013)
Month to date precipitation 0.92  
Year to date precipitation 0.92  
Sea Level Pressure  
Sea Level Pressure 29.88 in    
Wind  
Wind Speed 15 mph (SW)    
Max Wind Speed 25 mph    
Max Gust Speed 31 mph    
Visibility 9 miles    
Events      
T = Trace of Precipitation, MM = Missing Value Source: NWS Daily Summary

Daily Weather History Graph

Daily Weather History Graph

Search for Another Location

Airport:

Trip Planner

Search our weather history database for the weather conditions in past years. The results will help you decide how hot, cold, wet, or windy it might be!

Date:

Astronomy

Jan. 12, 2014 Rise Set
Actual Time 8:05 AM EST 5:37 PM EST
Civil Twilight 7:34 AM EST 6:07 PM EST
Nautical Twilight 7:01 AM EST 6:41 PM EST
Astronomical Twilight 6:28 AM EST 7:14 PM EST
Moon 3:04 PM EST (1/12) 5:03 AM EST (1/12)
Length of Visible Light 10h 32m
Length of Day
9h 32m
Waxing Gibbous, 89% of the Moon is Illuminated
Jan 12
Waxing Gibbous
Jan 15
Full
Jan 24
Last Quarter
Jan 30
New
Feb 6
First Quarter

Hourly Weather History & Observations

Time (EST) Temp. Windchill Dew Point Humidity Pressure Visibility Wind Dir Wind Speed Gust Speed Precip Events Conditions
12:15 AM 31.8 °F 19.9 °F 29.7 °F 92% 29.78 in 7.0 mi WNW 19.6 mph 26.5 mph N/A   Overcast
12:35 AM 31.3 °F 19.9 °F 29.3 °F 92% 29.78 in 7.0 mi WNW 17.3 mph 26.5 mph N/A   Overcast
12:55 AM 31.1 °F 19.7 °F 28.9 °F 92% 29.79 in 10.0 mi WNW 17.3 mph - N/A   Overcast
1:15 AM 31.1 °F 20.1 °F 28.6 °F 90% 29.80 in 10.0 mi WNW 16.1 mph 23.0 mph N/A   Overcast
1:35 AM 31.1 °F 20.5 °F 28.2 °F 89% 29.80 in 10.0 mi West 15.0 mph - N/A   Overcast
1:55 AM 31.1 °F 21.4 °F 28.8 °F 91% 29.81 in 10.0 mi West 12.7 mph 18.4 mph N/A   Overcast
2:15 AM 31.5 °F 21.8 °F 29.1 °F 91% 29.81 in 10.0 mi West 12.7 mph - N/A   Overcast
2:35 AM 31.5 °F 21.8 °F 28.9 °F 90% 29.82 in 10.0 mi WNW 12.7 mph - N/A   Overcast
2:55 AM 31.5 °F 21.8 °F 28.9 °F 90% 29.84 in 10.0 mi West 12.7 mph - N/A   Overcast
3:15 AM 31.3 °F 22.1 °F 28.9 °F 91% 29.85 in 10.0 mi WNW 11.5 mph - N/A   Overcast
3:35 AM 31.1 °F 20.9 °F 28.9 °F 92% 29.86 in 10.0 mi West 13.8 mph - N/A   Overcast
3:55 AM 31.1 °F 21.4 °F 28.8 °F 91% 29.86 in 10.0 mi WNW 12.7 mph - N/A   Overcast
4:15 AM 31.1 °F 21.4 °F 28.2 °F 89% 29.86 in 10.0 mi West 12.7 mph 19.6 mph N/A   Overcast
4:35 AM 30.7 °F 19.6 °F 27.9 °F 89% 29.88 in 10.0 mi West 16.1 mph 19.6 mph N/A   Overcast
4:55 AM 30.6 °F 19.0 °F 28.0 °F 90% 29.89 in 10.0 mi West 17.3 mph - N/A   Overcast
5:15 AM 30.2 °F 19.8 °F 27.9 °F 91% 29.89 in 10.0 mi WNW 13.8 mph - N/A   Overcast
5:35 AM 30.0 °F 21.7 °F 27.5 °F 90% 29.89 in 10.0 mi WNW 9.2 mph - N/A   Overcast
5:55 AM 30.0 °F 20.5 °F 28.0 °F 92% 29.89 in 10.0 mi West 11.5 mph - N/A   Overcast
6:15 AM 29.8 °F 20.3 °F 27.9 °F 92% 29.90 in 10.0 mi WNW 11.5 mph - N/A   Overcast
6:35 AM 29.8 °F 19.8 °F 28.2 °F 94% 29.91 in 10.0 mi West 12.7 mph - N/A   Overcast
6:55 AM 29.8 °F 20.9 °F 28.0 °F 93% 29.91 in 10.0 mi West 10.4 mph - N/A   Overcast
7:15 AM 29.7 °F 22.0 °F 27.5 °F 92% 29.93 in 10.0 mi West 8.1 mph - N/A   Overcast
7:35 AM 29.8 °F 20.9 °F 27.9 °F 92% 29.94 in 10.0 mi WSW 10.4 mph - N/A   Overcast
7:55 AM 29.8 °F 21.5 °F 27.9 °F 92% 29.95 in 10.0 mi WSW 9.2 mph - N/A   Overcast
8:15 AM 29.7 °F 21.3 °F 27.7 °F 92% 29.95 in 10.0 mi WSW 9.2 mph - N/A   Overcast
8:35 AM 29.8 °F 19.8 °F 27.7 °F 92% 29.96 in 7.0 mi SW 12.7 mph - N/A   Overcast
8:55 AM 29.7 °F 19.1 °F 27.7 °F 92% 29.98 in 7.0 mi WSW 13.8 mph 17.3 mph N/A   Overcast
9:15 AM 29.8 °F 20.9 °F 27.9 °F 92% 29.98 in 10.0 mi SW 10.4 mph - N/A   Overcast
9:35 AM 30.0 °F 20.0 °F 28.2 °F 93% 29.99 in 10.0 mi SW 12.7 mph 16.1 mph N/A   Overcast
9:55 AM 29.8 °F 20.9 °F 27.9 °F 92% 30.00 in 10.0 mi SW 10.4 mph - N/A   Overcast
10:15 AM 30.0 °F 19.5 °F 27.9 °F 92% 30.01 in 10.0 mi SSW 13.8 mph - N/A   Overcast
10:35 AM 30.2 °F 20.2 °F 28.0 °F 92% 30.01 in 7.0 mi SW 12.7 mph - N/A   Overcast
10:55 AM 30.4 °F 21.0 °F 28.2 °F 92% 30.01 in 7.0 mi SW 11.5 mph - N/A   Overcast
11:15 AM 30.9 °F 20.7 °F 28.6 °F 91% 29.99 in 10.0 mi SSW 13.8 mph - N/A   Overcast
11:35 AM 31.1 °F 20.9 °F 28.4 °F 90% 30.00 in 7.0 mi SSW 13.8 mph - N/A   Overcast
11:55 AM 31.5 °F 21.4 °F 28.9 °F 90% 29.99 in 7.0 mi SSW 13.8 mph - N/A   Overcast
12:15 PM 31.6 °F 21.6 °F 29.1 °F 90% 29.97 in 7.0 mi South 13.8 mph 18.4 mph N/A   Overcast
12:35 PM 32.0 °F 22.5 °F 29.8 °F 92% 29.95 in 7.0 mi South 12.7 mph 17.3 mph N/A   Overcast
12:55 PM 32.5 °F 23.2 °F 30.2 °F 91% 29.94 in 10.0 mi South 12.7 mph - N/A   Mostly Cloudy
1:15 PM 33.3 °F 24.1 °F 30.7 °F 90% 29.93 in 7.0 mi South 12.7 mph - N/A   Mostly Cloudy
1:35 PM 33.8 °F 24.3 °F 30.9 °F 89% 29.91 in 7.0 mi South 13.8 mph - N/A   Scattered Clouds
1:55 PM 34.3 °F 25.5 °F 31.1 °F 88% 29.91 in 10.0 mi South 12.7 mph - N/A   Clear
2:15 PM 34.7 °F 26.4 °F 31.3 °F 87% 29.91 in 7.0 mi South 11.5 mph - N/A   Clear
2:35 PM 35.2 °F 26.2 °F 31.5 °F 86% 29.90 in 10.0 mi South 13.8 mph - N/A   Clear
2:55 PM 35.6 °F 25.5 °F 31.5 °F 85% 29.90 in 7.0 mi South 17.3 mph 20.7 mph N/A   Clear
3:15 PM 35.6 °F 26.6 °F 30.6 °F 82% 29.89 in 10.0 mi South 13.8 mph - N/A   Clear
3:35 PM 36.0 °F 27.5 °F 30.6 °F 81% 29.89 in 7.0 mi South 12.7 mph - N/A   Clear
3:55 PM 36.5 °F 27.8 °F 30.6 °F 79% 29.89 in 7.0 mi South 13.8 mph - N/A   Clear
4:15 PM 36.7 °F 28.9 °F 30.7 °F 79% 29.89 in 7.0 mi South 11.5 mph - N/A   Clear
4:35 PM 36.9 °F 28.7 °F 30.9 °F 79% 29.88 in 10.0 mi South 12.7 mph - N/A   Clear
4:55 PM 36.9 °F 28.7 °F 31.1 °F 80% 29.88 in 7.0 mi South 12.7 mph - N/A   Clear
5:15 PM 37.0 °F 28.5 °F 31.1 °F 79% 29.87 in 5.0 mi South 13.8 mph - N/A   Haze
5:35 PM 37.0 °F 28.9 °F 31.1 °F 79% 29.87 in 7.0 mi South 12.7 mph - N/A   Clear
5:55 PM 36.7 °F 28.4 °F 31.1 °F 80% 29.86 in 5.0 mi South 12.7 mph - N/A   Haze
6:15 PM 36.9 °F 28.2 °F 31.1 °F 80% 29.86 in 10.0 mi South 13.8 mph - N/A   Clear
6:35 PM 37.4 °F 28.5 °F 31.1 °F 78% 29.85 in 7.0 mi South 15.0 mph 21.9 mph N/A   Clear
6:55 PM 37.6 °F 28.1 °F 31.1 °F 77% 29.85 in 10.0 mi South 17.3 mph 21.9 mph N/A   Clear
7:15 PM 37.9 °F 27.6 °F 31.1 °F 76% 29.84 in 10.0 mi South 20.7 mph 25.3 mph N/A   Clear
7:35 PM 38.8 °F 28.5 °F 30.9 °F 73% 29.83 in 7.0 mi South 21.9 mph - N/A   Clear
7:55 PM 39.2 °F 29.0 °F 30.4 °F 71% 29.82 in 7.0 mi South 21.9 mph 28.8 mph N/A   Clear
8:15 PM 39.2 °F 28.3 °F 30.0 °F 70% 29.80 in 7.0 mi South 25.3 mph 29.9 mph N/A   Clear
8:35 PM 39.7 °F 29.5 °F 29.8 °F 68% 29.79 in 10.0 mi South 23.0 mph 31.1 mph N/A   Clear
8:55 PM 39.9 °F 29.5 °F 29.8 °F 67% 29.78 in 10.0 mi South 24.2 mph 29.9 mph N/A   Clear
9:15 PM 39.7 °F 29.7 °F 30.0 °F 68% 29.79 in 10.0 mi South 21.9 mph 28.8 mph N/A   Clear
9:35 PM 39.7 °F 30.3 °F 30.0 °F 68% 29.79 in 10.0 mi South 19.6 mph 26.5 mph N/A   Clear
9:55 PM 39.7 °F 30.6 °F 30.0 °F 68% 29.80 in 10.0 mi SSW 18.4 mph - N/A   Clear
10:15 PM 39.4 °F 30.1 °F 30.2 °F 70% 29.80 in 10.0 mi SSW 18.4 mph 25.3 mph N/A   Clear
10:35 PM 39.6 °F 30.0 °F 30.2 °F 69% 29.80 in 7.0 mi SSW 19.6 mph 24.2 mph N/A   Clear
10:55 PM 39.4 °F 30.1 °F 30.6 °F 71% 29.80 in 10.0 mi SSW 18.4 mph 24.2 mph N/A   Clear
11:15 PM 38.7 °F 29.5 °F 30.6 °F 73% 29.79 in 10.0 mi South 17.3 mph 24.2 mph N/A   Clear
11:35 PM 38.5 °F 29.2 °F 30.6 °F 73% 29.79 in 5.0 mi South 17.3 mph - N/A   Haze
11:55 PM 38.7 °F 29.8 °F 30.6 °F 73% 29.78 in 7.0 mi South 16.1 mph - N/A   Clear